Time,TemperatureF,DewpointF,PressureIn,WindDirection,WindDirectionDegrees,WindSpeedMPH,WindSpeedGustMPH,Humidity,HourlyPrecipIn,Conditions,Clouds,dailyrainin,SolarRadiationWatts/m^2,SoftwareType,DateUTC
2013-02-01 00:02:00,-2.0,-9.0,-100.00,WNW,286,7.0,12.0,71,0.00,,,0.00,0.000000,,2013-02-01 06:02:00,
2013-02-01 00:32:00,-2.0,-9.0,-100.00,WNW,282,8.0,11.0,72,0.00,,,0.00,0.000000,,2013-02-01 06:32:00,
2013-02-01 00:42:00,-2.0,-9.0,-100.00,WNW,282,8.0,11.0,72,0.00,,,0.00,0.000000,,2013-02-01 06:42:00,
2013-02-01 00:52:00,-2.0,-9.0,-100.00,WNW,282,8.0,11.0,72,0.00,,,0.00,0.000000,,2013-02-01 06:52:00,
2013-02-01 01:02:00,-2.0,-9.0,-100.00,WNW,282,8.0,11.0,72,0.00,,,0.00,0.000000,,2013-02-01 07:02:00,
2013-02-01 01:32:00,-3.0,-10.0,-100.00,WNW,283,8.0,11.0,71,0.00,,,0.00,0.000000,,2013-02-01 07:32:00,
2013-02-01 01:42:00,-3.0,-10.0,-100.00,WNW,283,8.0,11.0,71,0.00,,,0.00,0.000000,,2013-02-01 07:42:00,
2013-02-01 01:52:00,-3.0,-10.0,-100.00,WNW,283,8.0,11.0,71,0.00,,,0.00,0.000000,,2013-02-01 07:52:00,
2013-02-01 02:01:00,-3.0,-10.0,-100.00,WNW,283,8.0,11.0,71,0.00,,,0.00,0.000000,,2013-02-01 08:01:00,
2013-02-01 02:32:00,-3.0,-11.0,-100.00,WNW,283,8.0,13.0,69,0.00,,,0.00,0.000000,,2013-02-01 08:32:00,
2013-02-01 02:42:00,-3.0,-11.0,-100.00,WNW,283,8.0,13.0,69,0.00,,,0.00,0.000000,,2013-02-01 08:42:00,
2013-02-01 02:52:00,-3.0,-11.0,-100.00,WNW,283,8.0,13.0,69,0.00,,,0.00,0.000000,,2013-02-01 08:52:00,
2013-02-01 03:01:00,-3.0,-11.0,-100.00,WNW,283,8.0,13.0,69,0.00,,,0.00,0.000000,,2013-02-01 09:01:00,
2013-02-01 03:32:00,-5.0,-14.0,-100.00,WNW,284,11.0,16.0,64,0.00,,,0.00,0.000000,,2013-02-01 09:32:00,
2013-02-01 03:42:00,-5.0,-14.0,-100.00,WNW,284,11.0,16.0,64,0.00,,,0.00,0.000000,,2013-02-01 09:42:00,
2013-02-01 03:52:00,-5.0,-14.0,-100.00,WNW,284,11.0,16.0,64,0.00,,,0.00,0.000000,,2013-02-01 09:52:00,
2013-02-01 04:01:00,-5.0,-14.0,-100.00,WNW,284,11.0,16.0,64,0.00,,,0.00,0.000000,,2013-02-01 10:01:00,
2013-02-01 04:32:00,-7.0,-15.0,-100.00,West,278,11.0,18.0,66,0.00,,,0.00,0.000000,,2013-02-01 10:32:00,
2013-02-01 04:43:00,-7.0,-15.0,-100.00,West,278,11.0,18.0,66,0.00,,,0.00,0.000000,,2013-02-01 10:43:00,
2013-02-01 04:53:00,-7.0,-15.0,-100.00,West,278,11.0,18.0,66,0.00,,,0.00,0.000000,,2013-02-01 10:53:00,
2013-02-01 05:02:00,-7.0,-15.0,-100.00,West,278,11.0,18.0,66,0.00,,,0.00,0.000000,,2013-02-01 11:02:00,
2013-02-01 05:32:00,-9.0,-18.0,-100.00,WNW,282,11.0,16.0,65,0.00,,,0.00,0.000000,,2013-02-01 11:32:00,
2013-02-01 05:42:00,-9.0,-18.0,-100.00,WNW,282,11.0,16.0,65,0.00,,,0.00,0.000000,,2013-02-01 11:42:00,
2013-02-01 05:53:00,-9.0,-18.0,-100.00,WNW,282,11.0,16.0,65,0.00,,,0.00,0.000000,,2013-02-01 11:53:00,
2013-02-01 06:02:00,-9.0,-18.0,-100.00,WNW,282,11.0,16.0,65,0.00,,,0.00,0.000000,,2013-02-01 12:02:00,
2013-02-01 06:32:00,-11.0,-20.0,-100.00,WNW,284,7.0,16.0,64,0.00,,,0.00,0.000000,,2013-02-01 12:32:00,
2013-02-01 06:42:00,-11.0,-20.0,-100.00,WNW,284,7.0,16.0,64,0.00,,,0.00,0.000000,,2013-02-01 12:42:00,
2013-02-01 06:52:00,-11.0,-20.0,-100.00,WNW,284,7.0,16.0,64,0.00,,,0.00,0.000000,,2013-02-01 12:52:00,
2013-02-01 07:02:00,-11.0,-20.0,-100.00,WNW,284,7.0,16.0,64,0.00,,,0.00,0.000000,,2013-02-01 13:02:00,
2013-02-01 07:33:00,-12.0,-20.0,-100.00,West,280,7.0,12.0,66,0.00,,,0.00,0.000000,,2013-02-01 13:33:00,
2013-02-01 07:43:00,-12.0,-20.0,-100.00,West,280,7.0,12.0,66,0.00,,,0.00,0.000000,,2013-02-01 13:43:00,
2013-02-01 07:53:00,-12.0,-20.0,-100.00,West,280,7.0,12.0,66,0.00,,,0.00,0.000000,,2013-02-01 13:53:00,
2013-02-01 08:03:00,-12.0,-20.0,-100.00,West,280,7.0,12.0,66,0.00,,,0.00,0.000000,,2013-02-01 14:03:00,
2013-02-01 08:32:00,-11.0,-20.0,-100.00,West,280,5.0,10.0,63,0.00,,,0.00,27.000000,,2013-02-01 14:32:00,
2013-02-01 08:42:00,-11.0,-20.0,-100.00,West,280,5.0,10.0,63,0.00,,,0.00,27.000000,,2013-02-01 14:42:00,
2013-02-01 08:53:00,-11.0,-20.0,-100.00,West,280,5.0,10.0,63,0.00,,,0.00,27.000000,,2013-02-01 14:53:00,
2013-02-01 09:02:00,-11.0,-20.0,-100.00,West,280,5.0,10.0,63,0.00,,,0.00,27.000000,,2013-02-01 15:02:00,
2013-02-01 09:33:00,-10.0,-21.0,-100.00,WNW,282,11.0,17.0,57,0.00,,,0.00,178.000000,,2013-02-01 15:33:00,
2013-02-01 09:42:00,-10.0,-21.0,-100.00,WNW,282,11.0,17.0,57,0.00,,,0.00,178.000000,,2013-02-01 15:42:00,
2013-02-01 09:52:00,-10.0,-21.0,-100.00,WNW,282,11.0,17.0,57,0.00,,,0.00,178.000000,,2013-02-01 15:52:00,
2013-02-01 10:03:00,-10.0,-21.0,-100.00,WNW,282,11.0,17.0,57,0.00,,,0.00,178.000000,,2013-02-01 16:03:00,
2013-02-01 10:33:00,-8.0,-21.0,-100.00,WNW,291,9.0,18.0,52,0.00,,,0.00,334.000000,,2013-02-01 16:33:00,
2013-02-01 10:43:00,-8.0,-21.0,-100.00,WNW,291,9.0,18.0,52,0.00,,,0.00,334.000000,,2013-02-01 16:43:00,
2013-02-01 10:52:00,-8.0,-21.0,-100.00,WNW,291,9.0,18.0,52,0.00,,,0.00,334.000000,,2013-02-01 16:52:00,
2013-02-01 11:02:00,-8.0,-21.0,-100.00,WNW,291,9.0,18.0,52,0.00,,,0.00,334.000000,,2013-02-01 17:02:00,
2013-02-01 11:32:00,-6.0,-20.0,-100.00,WNW,294,10.0,14.0,49,0.00,,,0.00,454.000000,,2013-02-01 17:32:00,
2013-02-01 11:42:00,-6.0,-20.0,-100.00,WNW,294,10.0,14.0,49,0.00,,,0.00,454.000000,,2013-02-01 17:42:00,
2013-02-01 11:53:00,-6.0,-20.0,-100.00,WNW,294,10.0,14.0,49,0.00,,,0.00,454.000000,,2013-02-01 17:53:00,
2013-02-01 12:03:00,-6.0,-20.0,-100.00,WNW,294,10.0,14.0,49,0.00,,,0.00,454.000000,,2013-02-01 18:03:00,
2013-02-01 12:32:00,-3.0,-19.0,-100.00,WSW,247,8.0,13.0,45,0.00,,,0.00,529.000000,,2013-02-01 18:32:00,
2013-02-01 12:42:00,-3.0,-19.0,-100.00,WSW,247,8.0,13.0,45,0.00,,,0.00,529.000000,,2013-02-01 18:42:00,
2013-02-01 12:53:00,-3.0,-19.0,-100.00,WSW,247,8.0,13.0,45,0.00,,,0.00,529.000000,,2013-02-01 18:53:00,
2013-02-01 13:02:00,-3.0,-19.0,-100.00,WSW,247,8.0,13.0,45,0.00,,,0.00,529.000000,,2013-02-01 19:02:00,
2013-02-01 13:32:00,-2.0,-18.0,-100.00,SW,232,9.0,14.0,45,0.00,,,0.00,549.000000,,2013-02-01 19:32:00,
2013-02-01 13:42:00,-2.0,-18.0,-100.00,SW,232,9.0,14.0,45,0.00,,,0.00,549.000000,,2013-02-01 19:42:00,
2013-02-01 13:52:00,-2.0,-18.0,-100.00,SW,232,9.0,14.0,45,0.00,,,0.00,549.000000,,2013-02-01 19:52:00,
2013-02-01 14:02:00,-2.0,-18.0,-100.00,SW,232,9.0,14.0,45,0.00,,,0.00,549.000000,,2013-02-01 20:02:00,
2013-02-01 14:32:00,0.0,-17.0,-100.00,West,281,9.0,15.0,43,0.00,,,-99.99,478.000000,,2013-02-01 20:32:00,
2013-02-01 14:42:00,0.0,-17.0,-100.00,West,281,9.0,15.0,43,0.00,,,-99.99,478.000000,,2013-02-01 20:42:00,
2013-02-01 14:52:00,0.0,-17.0,-100.00,West,281,9.0,15.0,43,0.00,,,-99.99,478.000000,,2013-02-01 20:52:00,
2013-02-01 15:02:00,0.0,-17.0,-100.00,West,281,9.0,15.0,43,0.00,,,-99.99,478.000000,,2013-02-01 21:02:00,
2013-02-01 15:32:00,2.0,-16.0,-100.00,WSW,249,8.0,15.0,41,0.00,,,0.00,366.000000,,2013-02-01 21:32:00,
2013-02-01 15:42:00,2.0,-16.0,-100.00,WSW,249,8.0,15.0,41,0.00,,,0.00,366.000000,,2013-02-01 21:42:00,
2013-02-01 15:52:00,2.0,-16.0,-100.00,WSW,249,8.0,15.0,41,0.00,,,0.00,366.000000,,2013-02-01 21:52:00,
2013-02-01 16:02:00,2.0,-16.0,-100.00,WSW,249,8.0,15.0,41,0.00,,,0.00,366.000000,,2013-02-01 22:02:00,
2013-02-01 16:32:00,1.0,-16.0,-100.00,West,259,9.0,14.0,43,0.00,,,0.00,217.000000,,2013-02-01 22:32:00,
2013-02-01 16:42:00,1.0,-16.0,-100.00,West,259,9.0,14.0,43,0.00,,,0.00,217.000000,,2013-02-01 22:42:00,
2013-02-01 16:52:00,1.0,-16.0,-100.00,West,259,9.0,14.0,43,0.00,,,0.00,217.000000,,2013-02-01 22:52:00,
2013-02-01 17:01:00,1.0,-16.0,-100.00,West,259,9.0,14.0,43,0.00,,,0.00,217.000000,,2013-02-01 23:01:00,
2013-02-01 17:32:00,-1.0,-16.0,-100.00,West,264,5.0,11.0,48,0.00,,,0.00,34.000000,,2013-02-01 23:32:00,
2013-02-01 17:42:00,-1.0,-16.0,-100.00,West,264,5.0,11.0,48,0.00,,,0.00,34.000000,,2013-02-01 23:42:00,
2013-02-01 17:52:00,-1.0,-16.0,-100.00,West,264,5.0,11.0,48,0.00,,,0.00,34.000000,,2013-02-01 23:52:00,
2013-02-01 18:02:00,-1.0,-16.0,-100.00,West,264,5.0,11.0,48,0.00,,,0.00,34.000000,,2013-02-02 00:02:00,
2013-02-01 18:32:00,-2.0,-15.0,-100.00,SSW,209,2.0,5.0,53,0.00,,,0.00,1.000000,,2013-02-02 00:32:00,
2013-02-01 18:42:00,-2.0,-15.0,-100.00,SSW,209,2.0,5.0,53,0.00,,,0.00,1.000000,,2013-02-02 00:42:00,
2013-02-01 18:52:00,-2.0,-15.0,-100.00,SSW,209,2.0,5.0,53,0.00,,,0.00,1.000000,,2013-02-02 00:52:00,
2013-02-01 19:02:00,-2.0,-15.0,-100.00,SSW,209,2.0,5.0,53,0.00,,,0.00,1.000000,,2013-02-02 01:02:00,
2013-02-01 19:32:00,-1.0,-11.0,-100.00,SW,225,3.0,4.0,61,0.00,,,0.00,0.000000,,2013-02-02 01:32:00,
2013-02-01 19:42:00,-1.0,-11.0,-100.00,SW,225,3.0,4.0,61,0.00,,,0.00,0.000000,,2013-02-02 01:42:00,
2013-02-01 19:52:00,-1.0,-11.0,-100.00,SW,225,3.0,4.0,61,0.00,,,0.00,0.000000,,2013-02-02 01:52:00,
2013-02-01 20:01:00,-1.0,-11.0,-100.00,SW,225,3.0,4.0,61,0.00,,,0.00,0.000000,,2013-02-02 02:01:00,
2013-02-01 20:32:00,0.0,-10.0,-100.00,SW,233,3.0,5.0,61,0.00,,,0.00,0.000000,,2013-02-02 02:32:00,
2013-02-01 20:42:00,0.0,-10.0,-100.00,SW,233,3.0,5.0,61,0.00,,,0.00,0.000000,,2013-02-02 02:42:00,
2013-02-01 20:52:00,0.0,-10.0,-100.00,SW,233,3.0,5.0,61,0.00,,,0.00,0.000000,,2013-02-02 02:52:00,
2013-02-01 21:02:00,0.0,-10.0,-100.00,SW,233,3.0,5.0,61,0.00,,,0.00,0.000000,,2013-02-02 03:02:00,
2013-02-01 21:32:00,1.0,-8.0,-100.00,SW,228,4.0,8.0,65,0.00,,,0.00,0.000000,,2013-02-02 03:32:00,
2013-02-01 21:42:00,1.0,-8.0,-100.00,SW,228,4.0,8.0,65,0.00,,,0.00,0.000000,,2013-02-02 03:42:00,
2013-02-01 21:52:00,1.0,-8.0,-100.00,SW,228,4.0,8.0,65,0.00,,,0.00,0.000000,,2013-02-02 03:52:00,
2013-02-01 22:01:00,1.0,-8.0,-100.00,SW,228,4.0,8.0,65,0.00,,,0.00,0.000000,,2013-02-02 04:01:00,
2013-02-01 22:32:00,1.0,-7.0,-100.00,SW,220,4.0,7.0,69,0.00,,,0.00,0.000000,,2013-02-02 04:32:00,
2013-02-01 22:42:00,1.0,-7.0,-100.00,SW,220,4.0,7.0,69,0.00,,,0.00,0.000000,,2013-02-02 04:42:00,
2013-02-01 22:52:00,1.0,-7.0,-100.00,SW,220,4.0,7.0,69,0.00,,,0.00,0.000000,,2013-02-02 04:52:00,
2013-02-01 23:03:00,1.0,-7.0,-100.00,SW,220,4.0,7.0,69,0.00,,,0.00,0.000000,,2013-02-02 05:03:00,
2013-02-01 23:33:00,1.0,-5.0,-100.00,SW,233,4.0,5.0,75,0.00,,,0.00,0.000000,,2013-02-02 05:33:00,
2013-02-01 23:42:00,1.0,-5.0,-100.00,SW,233,4.0,5.0,75,0.00,,,0.00,0.000000,,2013-02-02 05:42:00,
2013-02-01 23:52:00,1.0,-5.0,-100.00,SW,233,4.0,5.0,75,0.00,,,0.00,0.000000,,2013-02-02 05:52:00,